Theta_e
323 322 322 321 321 321 322 323 321 323 322 320 321 318 319 315 312 313 312 309 307 304
322 322 321 321 322 323 323 320 319 317 313 311 311 311 310 308 306 305 302 301 301 298
322 322 323 322 322 322 317 314 312 310 308 307 307 307 305 303 302 300 298 298 296 294
321 321 322 320 319 316 312 310 308 307 306 306 306 304 301 299 298 295 294 294 292 291
309 317 319 312 310 309 306 307 307 307 306 303 301 299 297 295 294 292 291 290 289 288
306 307 308 309 307 305 304 303 301 301 299 298 297 296 295 293 292 290 289 288 286 286
300 303 304 304 303 303 304 304 301 297 296 295 294 292 291 289 287 286 286 286 286 285
293 296 297 297 298 299 299 295 293 291 290 290 290 289 287 286 285 284 284 283 284 284
288 289 290 292 289 288 288 289 289 287 287 286 288 289 288 286 284 283 282 281 282 283
286 285 285 286 286 285 285 286 285 285 286 286 287 288 287 286 284 283 282 281 281 281
284 284 284 284 284 284 285 284 284 284 285 285 286 287 286 285 283 282 282 281 281 281
284 284 284 283 283 283 283 283 283 284 284 284 284 286 285 283 281 280 280 281 280 280
284 283 282 282 282 283 283 282 283 282 283 283 283 285 284 283 281 279 280 280 279 281
283 282 282 282 282 282 281 281 281 280 281 282 283 284 285 284 281 280 279 278 277 279
Wind_Speed
14 9 10 9 9 8 8 9 7 10 8 6 5 4 5 5 4 5 5 10 7 6
10 11 11 11 9 8 9 6 8 8 8 8 8 7 8 7 8 10 8 8 9 6
13 12 12 10 10 9 6 8 9 9 10 10 11 11 11 8 6 9 7 8 11 8
11 15 14 11 9 8 7 9 11 12 12 13 12 11 9 9 9 12 9 7 11 11
6 7 11 8 8 8 8 4 6 12 14 11 6 11 13 12 10 11 12 8 12 9
4 3 3 7 10 13 13 12 10 6 11 10 7 7 12 13 12 10 9 8 10 10
4 3 2 1 5 10 13 16 17 11 9 10 12 11 8 15 13 10 10 8 8 8
5 5 8 8 6 3 7 8 10 15 10 9 10 10 13 11 15 14 12 10 9 10
5 7 9 10 12 11 8 10 12 13 14 12 6 20 19 12 11 14 13 12 10 9
6 8 9 11 14 13 9 12 14 12 13 13 13 18 21 17 10 12 10 11 10 8
7 10 10 13 14 14 12 13 11 13 13 10 11 15 22 18 12 12 10 8 9 10
8 10 11 13 14 14 15 13 10 9 9 9 13 19 18 12 12 13 10 7 6 7
8 11 12 13 12 14 14 13 9 8 6 9 9 16 17 12 8 12 8 7 6 10
12 12 12 12 11 13 12 11 9 9 7 7 9 9 15 14 8 9 8 6 5 5
Wind_Direction
215 209 213 202 205 212 206 203 188 200 198 185 168 148 123 113 100 101 107 103 82 77
209 210 213 211 202 201 210 189 168 160 140 124 112 105 104 104 106 96 83 75 77 79
205 204 218 213 202 202 174 158 143 135 130 123 119 114 107 90 83 90 100 101 98 69
221 205 191 200 196 178 164 159 150 142 137 135 132 122 110 102 113 105 95 84 97 94
314 222 192 175 157 145 126 121 145 149 140 131 119 128 118 119 114 111 108 120 100 115
287 347 277 196 163 143 140 131 114 111 119 117 114 133 119 121 108 113 120 129 127 127
10 120 115 342 149 151 153 156 146 139 137 138 123 118 110 113 114 108 93 84 87 93
356 53 87 75 41 7 118 114 114 113 98 102 116 121 127 124 121 113 104 96 93 86
53 63 80 95 83 60 66 86 100 99 104 96 93 118 117 117 114 114 116 110 98 92
79 76 79 86 91 94 62 78 84 79 92 96 108 112 110 111 112 107 113 114 104 94
97 97 94 92 92 89 91 81 72 93 84 100 110 113 111 112 104 99 93 94 103 104
113 110 109 103 102 97 91 85 81 75 107 114 103 122 117 112 107 105 108 102 101 117
103 109 103 103 102 102 96 93 93 83 76 101 110 124 129 132 124 108 113 106 94 83
97 94 99 101 102 102 100 102 102 101 84 95 100 130 141 143 127 129 130 115 112 102